Total_Precipitation_Accumulation
0.96 0.99 0.99 0.90 0.89 0.91 0.97 1.17 1.42 1.20 0.72 0.53 0.55 0.61 0.69 0.78 0.98 0.92 0.87 0.91 0.94 0.98 1.07 1.09 1.10 1.23 1.53 2.11 3.04 4.37 5.02 4.38 3.48 3.15 3.13 3.36 3.70 4.15
0.90 0.97 0.99 0.95 0.92 0.91 0.99 1.03 1.16 1.33 1.05 0.59 0.53 0.58 0.71 0.76 0.84 0.80 0.83 0.95 0.94 0.94 0.98 1.03 1.09 1.13 1.28 1.55 2.02 2.86 4.07 4.75 4.38 3.73 3.38 3.49 3.69 3.95
0.87 0.90 0.91 0.93 0.97 0.93 0.96 0.99 0.99 1.06 1.06 0.64 0.51 0.53 0.70 0.79 0.77 0.74 0.79 0.84 0.86 0.95 0.96 0.98 1.04 1.11 1.27 1.42 1.67 2.11 2.82 3.80 4.47 4.34 3.93 3.70 3.62 3.66
0.84 0.85 0.85 0.86 0.92 0.89 0.88 0.89 0.87 0.84 0.89 0.73 0.51 0.51 0.59 0.68 0.79 0.86 0.84 0.82 0.82 0.90 0.93 1.01 1.11 1.13 1.21 1.35 1.56 1.87 2.25 2.80 3.51 4.04 4.10 3.86 3.63 3.59
0.86 0.87 0.84 0.87 0.91 0.85 0.86 0.83 0.76 0.71 0.74 0.77 0.61 0.53 0.57 0.63 0.80 0.94 0.93 0.92 0.88 0.90 0.94 1.02 1.10 1.17 1.21 1.27 1.44 1.67 1.88 2.11 2.53 3.27 3.81 3.76 3.61 3.50
0.81 0.80 0.84 0.94 0.95 0.93 0.96 0.85 0.79 0.81 0.84 0.89 0.77 0.65 0.68 0.70 0.88 1.09 1.17 1.12 1.07 0.96 0.99 1.04 1.15 1.24 1.23 1.17 1.19 1.28 1.45 1.78 2.14 2.57 3.17 3.55 3.45 3.38
0.76 0.77 0.83 0.97 1.02 1.15 1.24 1.11 1.08 1.17 1.13 1.15 1.06 0.96 0.91 0.95 1.04 1.08 1.24 1.26 1.27 1.13 1.04 0.98 1.03 1.05 1.09 1.11 1.12 1.16 1.23 1.41 1.73 2.11 2.52 2.99 3.29 3.35
0.80 0.76 0.77 0.89 0.93 1.02 1.16 1.23 1.30 1.42 1.46 1.45 1.39 1.28 1.06 0.99 1.04 1.18 1.26 1.44 1.50 1.24 1.16 1.10 1.06 1.14 1.08 1.06 1.18 1.19 1.21 1.30 1.51 1.81 2.14 2.44 2.83 3.23
0.78 0.77 0.77 0.83 0.90 0.89 0.97 0.99 1.02 1.17 1.38 1.50 1.56 1.23 1.06 1.01 1.21 1.41 1.39 1.47 1.45 1.37 1.47 1.41 1.15 1.16 1.10 1.19 1.33 1.25 1.20 1.22 1.32 1.53 1.81 2.08 2.35 2.71
0.73 0.74 0.74 0.76 0.87 1.05 1.02 0.96 0.87 0.90 1.11 1.32 1.55 1.39 1.23 1.26 1.56 1.86 1.96 1.85 1.49 1.32 1.48 1.65 1.27 1.16 1.17 1.25 1.39 1.30 1.18 1.14 1.18 1.35 1.57 1.77 2.00 2.29
0.71 0.70 0.72 0.72 0.91 1.17 1.13 0.99 0.82 0.75 0.87 1.19 1.48 1.61 1.62 1.72 1.94 2.25 2.43 2.27 1.85 1.37 1.35 1.59 1.46 1.30 1.39 1.54 1.58 1.45 1.21 1.15 1.16 1.23 1.35 1.47 1.68 1.98
0.78 0.73 0.81 0.90 1.05 1.19 1.09 1.05 1.11 0.92 0.81 0.86 0.95 1.08 1.18 1.31 1.64 1.91 2.19 2.26 1.96 1.78 1.48 1.54 1.67 1.66 1.88 1.77 1.64 1.41 1.19 1.16 1.16 1.18 1.19 1.25 1.41 1.47
0.84 0.79 0.76 0.96 1.04 1.10 1.15 1.11 1.32 1.24 1.02 1.02 0.97 0.94 0.94 1.06 1.26 1.55 1.90 2.16 2.15 1.91 1.59 1.81 2.09 1.91 1.95 1.82 1.70 1.59 1.26 1.08 1.07 1.14 1.18 1.20 1.27 1.28
0.79 0.69 0.73 0.94 1.02 1.10 1.08 1.15 1.26 1.22 1.07 1.00 0.90 0.86 0.90 0.98 1.09 1.25 1.56 1.78 1.85 1.72 1.48 1.78 2.32 2.11 1.97 1.70 1.62 1.70 1.50 1.24 1.09 1.07 1.08 1.27 1.28 1.23
0.79 0.87 0.93 1.03 1.03 0.95 0.98 1.06 1.06 1.00 1.09 1.08 0.93 0.85 0.89 1.02 1.10 1.14 1.26 1.52 1.67 1.63 1.56 1.63 2.00 2.12 2.10 1.85 1.52 1.55 1.64 1.55 1.28 1.18 1.12 1.10 1.03 0.98
0.95 0.99 1.06 1.04 0.93 0.83 0.85 0.86 0.83 0.91 1.06 1.07 0.95 0.85 0.83 0.93 1.06 1.16 1.25 1.38 1.59 1.63 1.61 1.66 1.92 2.26 2.22 1.77 1.57 1.50 1.45 1.62 1.51 1.33 1.19 1.09 0.97 0.82
1.16 1.22 1.14 1.04 0.97 0.85 0.74 0.67 0.70 0.84 0.97 0.92 0.91 0.89 0.86 0.88 0.95 1.04 1.23 1.37 1.51 1.56 1.65 1.80 1.95 2.14 2.23 2.15 1.96 1.59 1.37 1.34 1.39 1.36 1.29 1.25 1.16 0.96
1.31 1.23 1.02 0.88 0.84 0.79 0.75 0.71 0.67 0.70 0.76 0.82 0.87 0.89 0.90 0.91 0.93 0.95 1.09 1.31 1.45 1.49 1.56 1.70 1.88 2.08 2.26 2.38 2.18 1.76 1.45 1.31 1.37 1.42 1.35 1.37 1.38 1.17
1.16 0.97 0.82 0.75 0.73 0.72 0.70 0.67 0.64 0.60 0.65 0.73 0.76 0.80 0.85 0.90 0.92 0.95 1.00 1.14 1.31 1.43 1.52 1.61 1.75 1.95 2.11 2.27 2.35 1.98 1.66 1.41 1.39 1.57 1.56 1.42 1.36 1.25
0.94 0.85 0.78 0.72 0.70 0.72 0.72 0.70 0.67 0.64 0.67 0.69 0.70 0.70 0.77 0.87 0.90 0.89 0.94 1.06 1.20 1.32 1.41 1.49 1.67 1.88 2.05 2.02 2.10 2.12 2.00 1.69 1.49 1.62 1.70 1.60 1.49 1.44
0.84 0.83 0.80 0.78 0.77 0.77 0.77 0.76 0.75 0.72 0.68 0.68 0.69 0.68 0.68 0.76 0.80 0.77 0.82 0.94 1.10 1.22 1.29 1.30 1.43 1.65 1.87 1.91 1.84 1.81 1.99 2.02 1.71 1.66 1.74 1.79 1.74 1.65
0.78 0.83 0.83 0.83 0.83 0.84 0.84 0.83 0.81 0.75 0.71 0.70 0.67 0.65 0.65 0.68 0.72 0.73 0.78 0.85 0.91 1.02 1.15 1.22 1.32 1.55 1.84 2.00 1.92 1.78 1.85 2.00 2.03 1.86 1.76 1.79 1.93 1.93
0.88 0.88 0.87 0.87 0.87 0.88 0.88 0.85 0.81 0.74 0.68 0.66 0.66 0.64 0.66 0.67 0.67 0.71 0.74 0.79 0.86 0.92 1.03 1.18 1.31 1.46 1.69 1.88 1.98 1.90 1.78 1.80 1.90 1.94 2.05 1.86 1.51 1.33